Showing default

ICEYE-X45, 62705

Orbit data source: Space-Track

ICEYE-X45, 62705 is a payload satellite owned by ICEYE US (US) in SSO that was launched on Tue, 14 Jan 2025 UTC via an FALCON 9 launch vehicle from the Air Force Western Test Range (AFWTR). Payload-class satellites include a variety of spacecraft equipped with specific instruments for various scientific and technological missions. These include communications satellites like Starlink; space stations such as the ISS; scientific satellites like the Hubble; Earth observation satellites from companies like Planet Labs, Umbra, and HawkEye 360; GPS; miniature CubeSats for education and research; and military/defense satellites.

Loading next visibility...
Identifier
62705, 2025-009DA
Orbit
SSO
Country
Flag of USUS
Related business
Manufacturer
ICEYE
Mission
Operational Commercial Radar Imaging
Bus & Motor
ICEYE, Unknown motor
Mass
80 kg wet, 80 kg dry
Launch date (UTC)
2025-01-14 (9 months ago)
Launch vehicle
FALCON 9
Launch site
Air Force Western Test Range (AFWTR)
Object type
Payload
Rocket body
Debris
Shape & HBR
Box + 1 Pan, 0.6 m
Radar Cross Section
0.776 m², Medium (>0.1 m² and < 1m²)

Expand to show TLE details & history
Last TLE update: 9 hours ago

TLE from 9 hours ago
0 ICEYE-X45
1 62705U 25009DA  25286.65013170  .00008258  00000-0  65320-3 0  9994
2 62705  97.7776   7.3345 0001215  68.3656 291.7697 15.00888836 40709
Epoch: 2025-10-13T15:36Z
TLE epoch observation values (Epoch: 2025-10-13T15:36:11.378Z)
Latitude
-0.00005°
Longitude
110.83723°
Altitude
566.895 km
Speed
7.578 km/s
True Right ascension
00h 29m 20s
True Declination
0° 00' 00"
Sunlit
Object was in full shadow at epoch
Visualization orbit readout
Latitude
Unknown
Longitude
Unknown
Altitude
Unknown
Speed
Unknown
Apparent Right ascension
Unknown
Apparent Declination
Unknown
Sunlit
N/A
Visualization observer readout
Local Sidereal Time
18:49:14
Azimuth
Unknown
Elevation
Unknown
Doppler factor
Unknown
Orbital elements
Apogee altitude
562.005 km
Perigee altitude
560.319 km
Semi-major axis
6,939.299 km
Eccentricity
0.00012
Inclination
97.7776°
RAAN
7.3345°
Arg. of periapsis
68.3656°
True anomaly
291.75677°
Mean anomaly
291.7697°
Eccentric anomaly
291.76323°
Mean motion
3.75465 °/min
Orbital period
95.88 mins
BSTAR
0.0006532
Loading maneuver chart data...
Computing Atmospheric mass density...
Loading historical data...
Loading historical data...
Loading historical data...
Loading historical data...
Loading historical data...
Loading historical data...
Loading historical data...

Documentation

Showing up to 5 results
|